Dewpoint
19 20 21 20 21 22 22 22 23 25 27 27 26 24 24 23 24 24 23 22 23 23 21 20 20 22 24 25 25 26 26 26 23 25 30 31 31 31 34 34 36 37 38
19 19 19 19 20 20 21 22 24 25 27 27 24 22 23 22 24 24 22 21 22 21 20 19 18 21 23 25 25 25 26 27 25 23 26 28 29 31 31 33 33 36 37
18 18 19 19 19 19 21 22 24 25 26 26 22 20 20 22 24 24 21 20 20 23 21 21 20 21 24 24 25 25 25 26 27 25 24 27 28 29 29 34 32 33 35
19 19 18 19 19 20 21 22 22 23 23 24 24 21 18 21 26 25 21 19 19 21 23 21 22 23 25 24 25 25 25 25 26 25 24 25 26 28 29 29 31 32 31
20 19 19 20 19 19 19 20 21 20 21 22 22 19 18 18 27 25 21 19 19 19 20 21 22 23 23 24 25 25 25 25 25 24 24 24 24 25 24 28 29 31 31
19 18 19 19 18 18 16 17 17 17 17 19 18 20 17 17 26 25 19 19 19 19 20 21 23 21 25 20 25 27 27 25 24 24 24 23 24 26 26 27 28 27 27
18 18 18 17 16 14 13 13 14 15 14 15 16 16 17 17 22 26 18 19 18 19 19 19 22 21 25 20 24 25 25 26 27 26 24 24 24 26 27 26 27 26 26
17 18 19 15 14 12 11 11 12 13 13 13 14 15 16 16 22 25 18 18 17 22 18 19 23 21 24 21 22 23 23 24 26 27 26 26 27 29 28 28 28 28 29
17 18 19 14 13 12 10 11 11 12 12 11 12 14 16 17 24 23 20 18 16 18 17 18 23 22 24 22 20 21 21 22 24 26 26 27 28 29 29 28 25 26 24
18 20 20 14 14 13 13 11 12 12 11 11 13 15 17 19 23 23 20 18 15 16 16 16 19 21 21 23 21 21 19 21 23 21 23 23 26 26 26 28 27 24 23
20 20 18 14 14 14 15 14 12 12 12 13 14 15 17 21 21 21 20 19 16 15 15 16 19 20 19 20 21 22 21 21 22 21 22 23 23 24 25 26 28 27 25
17 17 16 16 15 15 15 15 12 13 13 14 15 16 18 19 19 19 19 19 18 16 16 18 19 19 19 19 20 20 19 19 20 20 20 21 22 23 24 25 25 26 27
14 15 16 15 15 14 15 15 14 14 14 15 16 16 17 18 20 19 19 19 20 18 19 18 17 17 17 17 19 19 18 18 18 18 18 20 22 23 24 25 25 25 25
12 13 13 13 12 13 16 17 15 15 15 16 17 16 17 17 20 20 20 19 18 18 18 18 18 18 17 17 17 17 18 18 17 17 18 20 21 22 24 25 24 24 24
11 10 11 13 12 11 14 17 16 17 15 15 18 18 18 17 20 21 20 21 20 19 18 16 15 14 13 14 14 16 16 16 15 17 17 18 19 21 23 25 25 24 24
8 9 10 10 12 12 13 13 16 15 14 15 17 20 19 20 18 18 18 19 19 18 15 13 12 13 12 13 13 13 14 14 15 16 16 17 18 20 21 24 24 25 24
9 9 10 11 11 13 14 14 13 14 13 14 16 17 17 17 17 16 16 17 18 14 13 12 12 12 12 12 13 13 13 14 16 16 16 16 18 19 23 23 23 24 23
12 12 11 11 12 12 13 14 15 14 12 11 13 15 16 16 15 15 14 12 13 14 13 12 12 12 12 12 12 12 13 14 15 15 16 16 18 20 23 23 23 23 22
9 10 11 12 12 13 14 15 15 14 13 11 11 12 13 13 13 13 12 12 12 12 13 12 12 12 12 12 12 13 13 14 15 15 16 17 19 21 22 22 23 23 21
11 12 13 12 13 13 15 15 14 14 13 12 10 11 12 11 10 10 11 10 11 11 11 12 12 12 12 12 12 12 12 13 14 15 16 18 20 21 21 21 21 21 20
11 13 14 14 14 14 15 15 14 14 13 11 11 10 10 10 10 10 9 9 10 10 11 10 11 10 11 11 11 11 11 12 13 14 15 18 19 20 21 21 19 20 19
13 15 16 15 15 15 15 15 14 13 12 10 9 9 8 8 8 8 8 7 9 10 10 10 9 9 10 9 10 9 10 11 12 13 16 18 18 19 19 18 18 18 17
14 15 15 16 15 15 15 14 13 12 11 9 9 7 7 6 5 6 6 5 7 6 8 8 7 7 8 8 9 9 8 9 11 13 16 17 17 17 17 17 17 16 16
14 16 16 15 14 14 13 13 12 11 11 9 6 6 5 5 3 3 3 3 4 4 5 5 6 6 6 7 7 7 8 10 10 12 15 16 15 16 15 15 16 15 15
16 17 17 16 14 12 11 12 11 10 10 9 7 5 5 4 3 1 1 1 1 2 3 4 5 5 6 6 5 5 5 7 9 10 12 13 12 13 12 13 13 13 13
16 17 16 15 14 12 11 10 11 10 10 8 7 5 4 4 3 -1 0 -1 -1 0 2 3 4 4 5 6 5 4 4 5 7 9 10 11 11 11 11 10 10 10 11
Wind_Speed
8 9 10 12 13 13 13 14 15 14 13 12 11 13 13 17 18 17 17 16 16 14 15 17 17 16 16 15 15 16 14 13 13 11 9 14 8 14 10 7 6 8 7
6 9 9 11 12 14 15 15 15 14 13 10 12 13 14 15 17 17 17 16 16 15 17 17 19 17 17 14 15 17 15 15 13 12 10 9 7 15 12 6 4 4 4
7 8 9 12 14 15 15 15 15 14 14 11 11 15 17 16 17 16 15 14 15 12 16 17 19 20 15 14 15 16 15 15 12 9 7 7 4 11 14 5 7 6 2
8 9 11 12 14 14 14 14 14 14 14 13 10 14 16 16 16 16 15 14 15 15 15 17 18 19 17 15 14 14 16 15 13 11 9 7 6 8 9 10 8 6 14
8 10 11 12 12 13 13 14 13 14 13 13 13 13 16 17 18 20 16 15 15 16 16 17 18 20 23 18 15 14 15 15 13 11 11 9 11 10 12 9 6 8 18
8 10 11 12 12 12 13 13 13 14 14 14 15 14 17 16 26 26 23 15 15 15 16 18 17 19 19 20 19 17 15 16 15 13 12 14 14 14 12 10 7 3 5
8 10 11 11 11 12 12 13 14 15 15 14 15 16 16 17 28 27 25 15 15 16 15 18 16 18 17 16 18 16 15 16 16 12 14 12 11 14 12 12 13 10 7
8 10 10 9 10 11 13 14 14 13 14 14 14 16 17 17 27 28 23 16 15 13 15 18 17 19 20 20 16 13 13 13 14 12 12 12 12 13 12 8 5 5 6
8 9 8 8 10 11 15 16 14 14 13 13 14 16 17 19 26 29 21 15 16 14 15 18 20 17 27 25 18 17 14 15 14 15 16 16 18 20 18 10 12 6 7
9 8 5 7 8 11 12 13 13 11 12 13 14 15 18 18 23 28 24 16 17 16 15 17 23 23 25 25 19 18 18 17 16 16 16 16 16 17 19 14 9 10 3
7 7 5 4 7 9 11 11 12 13 12 13 14 15 16 19 20 27 27 18 17 16 17 17 17 26 24 26 23 18 18 17 16 14 14 14 15 16 15 14 13 11 11
6 7 5 6 6 8 11 11 11 13 14 15 16 17 16 17 23 25 27 24 22 16 17 16 17 25 25 24 22 25 23 17 16 16 15 16 16 17 16 14 13 12 11
8 8 7 6 7 10 11 10 12 13 13 15 16 18 18 17 16 23 25 24 22 17 16 20 22 22 22 19 24 24 20 18 17 17 16 15 14 13 13 12 15 13 10
9 8 6 7 9 11 11 7 10 12 13 14 16 16 16 17 17 16 17 16 20 18 17 15 16 17 16 16 18 19 17 16 15 15 15 14 14 16 15 12 12 13 11
7 7 7 7 9 10 10 11 11 10 14 13 14 12 16 16 19 20 19 18 18 16 13 13 18 19 20 20 19 19 18 19 20 18 18 17 17 16 15 13 13 12 14
8 7 6 7 8 9 10 10 13 14 16 18 19 16 12 19 22 23 22 22 24 20 16 18 19 18 19 19 19 19 18 19 18 16 16 16 17 16 15 14 12 14 13
7 6 7 7 8 9 9 11 12 11 14 17 19 20 20 21 24 24 23 20 24 19 19 18 18 18 18 17 17 16 17 17 15 16 16 16 16 16 15 15 15 13 14
8 7 7 8 9 11 11 10 9 12 14 15 15 18 20 21 22 24 24 15 20 21 19 18 18 17 17 17 17 17 17 17 17 16 16 16 16 14 14 15 15 14 13
8 6 6 7 8 9 9 8 9 10 11 11 13 14 18 18 20 22 23 19 19 20 18 18 17 17 17 16 16 16 16 16 16 15 16 16 16 14 14 14 14 16 14
9 8 8 8 8 9 8 8 9 9 9 10 13 14 14 13 18 19 17 17 17 17 17 17 17 16 16 16 16 16 16 17 17 16 16 15 14 14 14 15 15 14 13
8 7 8 8 8 8 7 8 8 9 9 9 9 13 15 11 13 14 15 15 15 16 16 16 16 16 16 16 16 16 15 15 16 16 15 15 14 14 14 13 14 14 14
8 7 7 7 7 8 6 7 8 9 8 9 9 10 14 11 11 12 13 14 13 13 13 14 14 15 16 16 16 15 15 15 16 16 16 15 14 13 13 13 14 14 15
8 8 7 6 7 6 6 7 8 8 8 8 8 9 10 12 12 12 12 13 12 13 13 13 13 15 15 15 14 13 13 15 15 14 14 14 13 13 13 13 14 14 14
8 9 8 7 8 6 5 5 6 6 6 6 8 9 10 10 12 12 13 13 13 14 13 13 14 16 16 16 14 13 13 13 12 13 14 13 13 14 13 13 14 15 15
10 9 8 8 8 7 5 4 4 3 3 3 5 7 7 9 11 13 13 13 13 15 15 15 14 16 17 19 20 20 19 19 17 17 13 14 15 15 15 13 13 13 17
10 9 9 8 8 7 6 5 4 2 1 1 2 3 5 8 9 10 12 13 14 14 15 14 16 20 20 17 19 20 20 20 19 19 15 14 15 16 14 15 16 14 16
Wind_Direction
46 42 31 11 2 353 347 339 336 337 346 360 16 2 350 348 346 347 345 344 339 349 346 345 335 328 323 324 328 325 317 323 317 316 318 317 317 346 341 354 347 358 32
55 44 25 9 360 354 348 344 344 349 357 15 22 6 352 348 344 350 349 344 342 356 343 340 332 329 320 325 329 327 328 329 329 322 317 326 313 333 336 350 3 353 54
54 37 17 3 358 356 355 352 354 1 12 21 26 10 354 343 343 355 351 344 340 335 338 334 328 324 323 339 331 329 329 334 336 331 336 326 312 331 339 289 43 6 87
56 35 19 2 360 359 358 1 3 8 17 13 11 7 354 337 347 354 353 345 339 336 326 337 330 321 342 345 338 333 331 339 333 343 356 353 340 321 337 332 26 33 45
47 30 14 3 6 4 2 3 5 12 8 11 6 6 354 343 353 357 358 347 340 338 335 335 333 347 351 355 349 346 340 356 345 344 359 355 3 0 352 322 346 13 45
43 27 9 9 8 2 4 2 7 10 9 10 6 356 354 344 345 357 1 347 338 339 336 334 333 348 350 356 354 357 1 9 357 1 8 7 360 356 347 344 357 339 54
42 25 11 12 13 5 7 11 12 9 6 3 4 357 347 340 349 0 3 349 343 344 352 344 355 348 353 359 355 354 1 5 7 4 10 7 358 355 347 357 25 43 41
46 25 15 18 18 10 18 15 11 6 2 359 359 355 344 346 346 5 4 350 350 352 359 352 3 350 3 8 2 1 1 3 5 8 14 3 2 5 8 5 2 27 40
27 16 20 29 28 22 25 18 9 4 357 358 359 352 348 344 355 7 7 356 356 4 4 357 7 5 5 11 4 5 9 5 1 12 21 17 18 23 25 33 27 26 46
4 6 46 50 37 32 25 17 6 354 358 356 358 355 353 352 358 12 13 6 359 3 3 3 5 11 7 12 9 5 9 359 356 4 11 10 15 19 26 33 34 52 29
14 36 81 55 36 29 26 20 5 359 355 357 3 1 358 1 7 14 17 15 8 5 6 4 360 8 12 11 14 14 11 358 0 10 15 15 19 18 18 21 30 42 46
57 62 67 35 16 11 25 22 10 3 7 7 8 6 3 6 11 13 19 18 17 8 8 4 1 10 11 13 15 16 13 8 8 12 16 18 14 9 4 8 19 33 47
82 71 53 33 20 19 28 31 23 11 16 12 10 3 360 2 9 13 13 16 15 11 8 10 10 12 11 7 13 16 12 12 10 15 12 10 3 356 7 14 19 17 30
80 63 45 37 33 34 31 43 37 25 19 12 10 7 357 359 4 10 6 10 10 7 359 358 358 5 12 12 10 10 11 11 12 10 6 3 7 14 20 14 19 12 28
80 63 45 42 40 39 41 34 26 33 28 17 13 9 1 8 8 14 15 16 15 4 0 13 17 17 15 12 11 11 9 9 11 5 8 8 12 13 17 20 29 38 48
79 59 48 46 44 44 42 33 30 42 35 31 23 26 16 18 18 19 19 16 22 16 25 25 19 15 14 9 7 5 7 7 3 2 8 9 8 8 7 26 30 33 35
87 65 60 55 50 47 43 36 25 13 30 30 29 24 29 26 24 23 20 18 25 28 32 22 19 13 7 5 4 3 360 357 355 7 8 6 4 3 10 24 24 26 28
85 77 71 62 62 56 47 34 23 26 17 10 16 28 24 28 28 27 24 20 26 26 27 19 12 7 5 2 359 358 355 358 2 2 6 6 3 0 15 19 24 30 31
95 80 79 67 62 57 46 38 35 31 26 14 7 12 10 16 24 27 24 29 23 19 15 15 9 4 1 358 356 354 353 356 358 1 5 4 2 8 18 19 17 26 33
93 88 85 74 64 57 46 45 43 34 29 22 21 10 356 12 19 16 19 17 17 15 10 8 5 2 359 357 355 355 356 1 2 3 1 7 8 10 17 18 22 23 18
112 98 91 80 69 62 50 55 50 43 33 28 22 16 12 22 17 17 14 13 10 7 4 2 1 360 359 357 356 356 357 355 357 356 357 7 15 19 16 17 21 24 23
121 115 101 94 87 71 59 62 64 55 41 33 20 12 16 25 20 16 12 7 0 360 0 359 358 359 357 355 352 352 353 354 354 353 355 3 15 21 17 21 24 25 26
131 125 114 111 102 95 84 74 74 66 56 44 32 27 22 25 20 14 9 3 1 1 358 1 1 359 357 355 354 354 351 347 340 343 355 3 11 15 17 25 26 29 30
142 141 136 134 123 120 112 99 85 73 65 52 44 37 28 20 20 16 11 6 6 5 3 2 1 0 358 1 358 356 354 349 349 356 3 12 17 17 23 30 29 29 31
161 156 157 162 162 153 143 133 113 91 66 45 37 34 20 20 21 14 11 10 11 12 9 6 5 0 1 4 8 7 3 8 14 13 18 24 33 32 34 35 34 33 34
171 169 169 167 173 175 174 174 171 175 159 355 9 13 8 12 12 11 10 13 13 12 11 7 7 10 9 8 7 10 14 18 21 22 27 35 42 38 37 39 37 41 40